Location: *
(49.8044°N, 4.0558°E)
Time: 01:12:58
(UTC+00:00)

Cosmos 2333 Rocket - Pass Details

Date: 09 April 2020
Orbit: 840 x 861 km, 70.8° (Epoch: 03 June)

Event Time Altitude Azimuth Distance (km) Brightness Sun altitude
Rises 23:34:41 0° 332° (NNW) 3,408 6.3 -32.1°
Reaches altitude 10° 23:37:15 10° 339° (NNW) 2,470 5.4 -32.1°
Enters shadow 23:42:32 45° 48° (NE) 1,147 3.0 -32.2°
